Weather History for St. Joseph, MO

Change the Weather History Date:

Tuesday, January 1, 2013

  Actual Average Record
Temperature  
Mean Temperature 13 °F 26 °F  
Max Temperature 20 °F 36 °F 63 °F (1939)
Min Temperature 5 °F 17 °F -11 °F (1974)
Degree Days  
Heating Degree Days 52 38  
Month to date heating degree days 52 38  
Since 1 July heating degree days 2148 2251  
Cooling Degree Days 0 0  
Month to date cooling degree days 0 0  
Year to date cooling degree days 0 0  
Moisture  
Dew Point 5 °F    
Average Humidity 68    
Maximum Humidity 80    
Minimum Humidity 56    
Precipitation  
Precipitation 0.00 in 0.02 in 0.87 in (1941)
Month to date precipitation 0.00 0.02  
Year to date precipitation 0.00 0.02  
Sea Level Pressure  
Sea Level Pressure 30.32 in    
Wind  
Wind Speed 5 mph (North)    
Max Wind Speed 13 mph    
Max Gust Speed 15 mph    
Visibility 10 miles    
Events      
T = Trace of Precipitation, MM = Missing Value Source: NWS Daily Summary

Daily Weather History Graph

Daily Weather History Graph

Search for Another Location

Airport:

Trip Planner

Search our weather history database for the weather conditions in past years. The results will help you decide how hot, cold, wet, or windy it might be!

Date:

Astronomy

Jan. 01, 2013 Rise Set
Actual Time 7:40 AM CST 5:06 PM CST
Civil Twilight 7:10 AM CST 5:36 PM CST
Nautical Twilight 6:36 AM CST 6:10 PM CST
Astronomical Twilight 6:04 AM CST 6:42 PM CST
Moon 9:37 PM CST 9:54 AM CST
Length of Visible Light 10h 25m
Length of Day
9h 25m
Waning Gibbous, 83% of the Moon is Illuminated
Jan 1
Waning Gibbous
Jan 4
Last Quarter
Jan 11
New
Jan 18
First Quarter
Jan 26
Full

Hourly Weather History & Observations

Time (CST) Temp. Windchill Dew Point Humidity Pressure Visibility Wind Dir Wind Speed Gust Speed Precip Events Conditions
12:53 AM 18.0 °F 6.1 °F 10.9 °F 74% 30.25 in 10.0 mi North 10.4 mph - N/A   Overcast
1:53 AM 17.1 °F 6.6 °F 9.0 °F 71% 30.27 in 10.0 mi North 8.1 mph - N/A   Overcast
2:53 AM 16.0 °F 5.3 °F 9.0 °F 74% 30.28 in 10.0 mi North 8.1 mph - N/A   Mostly Cloudy
3:53 AM 14.0 °F 6.5 °F 8.1 °F 77% 30.30 in 10.0 mi North 4.6 mph - N/A   Overcast
4:53 AM 12.0 °F -1.3 °F 5.0 °F 73% 30.28 in 10.0 mi North 10.4 mph - N/A   Partly Cloudy
5:53 AM 9.0 °F -2.2 °F 3.0 °F 77% 30.29 in 10.0 mi NNE 6.9 mph - N/A   Clear
7:53 AM 6.1 °F -5.6 °F -0.0 °F 76% 30.34 in 10.0 mi North 6.9 mph - N/A   Clear
8:53 AM 8.1 °F 1.4 °F 1.9 °F 76% 30.37 in 10.0 mi North 3.5 mph - N/A   Partly Cloudy
9:53 AM 10.0 °F 1.8 °F 1.9 °F 70% 30.38 in 10.0 mi NNW 4.6 mph - N/A   Overcast
10:53 AM 12.9 °F 5.2 °F 3.0 °F 65% 30.39 in 10.0 mi NNW 4.6 mph - N/A   Scattered Clouds
11:53 AM 15.1 °F 4.2 °F 3.9 °F 61% 30.37 in 10.0 mi North 8.1 mph - N/A   Mostly Cloudy
12:53 PM 17.1 °F 8.7 °F 5.0 °F 59% 30.35 in 10.0 mi North 5.8 mph - N/A   Clear
1:53 PM 18.0 °F - 5.0 °F 57% 30.34 in 10.0 mi Calm Calm - N/A   Mostly Cloudy
2:53 PM 19.0 °F - 6.1 °F 57% 30.33 in 10.0 mi Calm Calm - N/A   Partly Cloudy
3:53 PM 19.9 °F - 6.1 °F 55% 30.32 in 10.0 mi Calm Calm - N/A   Clear
4:53 PM 17.1 °F - 6.1 °F 62% 30.32 in 10.0 mi Calm Calm - N/A   Clear
5:53 PM 12.9 °F 3.8 °F 3.9 °F 67% 30.32 in 10.0 mi WSW 5.8 mph - N/A   Clear
6:53 PM 12.9 °F 6.9 °F 3.0 °F 65% 30.31 in 10.0 mi WSW 3.5 mph - N/A   Clear
7:53 PM 8.1 °F 1.4 °F 1.9 °F 76% 30.31 in 10.0 mi SSW 3.5 mph - N/A   Clear
8:53 PM 10.9 °F - 3.9 °F 73% 30.31 in 10.0 mi Calm Calm - N/A   Clear
9:53 PM 6.1 °F -0.9 °F 1.0 °F 80% 30.30 in 10.0 mi South 3.5 mph - N/A   Clear
10:53 PM 10.0 °F 3.6 °F 3.0 °F 73% 30.27 in 10.0 mi South 3.5 mph - N/A   Clear
11:53 PM 9.0 °F - 3.0 °F 77% 30.28 in 10.0 mi Calm Calm - N/A   Clear